Theta_e
297 297 297 297 298 297 297 297 300 300 301 301 302 304 306 305 305 304 305 303 303 308
294 294 293 294 295 295 297 297 297 297 297 297 298 300 300 298 300 299 300 299 299 299
291 293 294 294 293 293 293 294 294 294 294 294 294 294 294 293 294 294 294 294 294 294
287 288 288 289 290 290 290 291 291 291 292 290 289 290 290 290 290 290 290 291 291 291
285 285 285 286 286 287 287 288 288 289 288 287 287 287 287 286 287 287 286 287 288 288
282 282 283 283 284 284 284 284 285 285 285 284 285 284 284 284 284 284 285 286 286 285
280 280 281 281 281 282 282 282 282 282 283 283 283 282 282 281 282 282 283 284 284 283
280 280 280 280 280 280 280 280 280 280 281 281 282 282 280 280 280 280 280 280 282 282
279 279 279 279 278 279 278 278 278 278 278 280 281 283 282 280 279 279 279 279 279 280
278 278 277 277 277 277 276 276 276 277 277 278 279 282 281 280 279 278 278 278 278 278
277 277 276 276 276 275 276 275 275 276 276 278 279 281 280 279 277 277 277 277 276 276
277 276 275 275 274 275 275 276 275 276 276 275 277 279 280 277 276 275 275 275 275 275
276 275 274 274 274 275 275 275 275 275 275 275 273 278 278 276 275 274 274 274 275 276
274 274 274 274 274 274 274 274 274 272 273 273 273 274 276 277 275 274 273 273 273 273
Wind_Speed
6 4 5 6 5 5 5 5 5 4 8 7 6 5 6 5 5 7 6 9 7 7
5 6 7 7 7 5 6 6 6 6 7 7 6 7 7 6 5 6 4 4 4 4
6 6 7 7 8 7 7 6 6 7 7 8 7 8 7 5 6 7 5 5 7 6
6 7 7 7 7 7 7 7 8 7 8 8 8 8 8 7 8 8 7 8 7 8
6 6 7 7 8 7 8 7 8 8 9 9 10 9 9 9 8 8 8 7 8 9
6 6 8 8 8 7 7 7 8 8 9 9 9 8 8 7 7 7 6 6 8 8
6 6 6 6 7 7 6 8 8 8 9 9 8 8 7 7 7 6 7 8 7 8
6 6 6 7 7 6 7 7 7 8 8 7 8 6 5 5 5 6 6 7 7 8
7 6 6 7 7 8 7 7 8 8 8 8 6 13 12 8 5 6 6 6 6 5
8 8 7 6 6 7 6 6 7 7 8 7 5 13 12 9 4 5 5 6 6 5
7 8 7 6 6 6 5 6 6 7 7 7 6 12 10 7 5 4 5 6 6 6
8 8 8 7 6 5 6 6 5 6 6 6 8 10 11 6 5 4 4 5 5 6
8 8 7 7 6 4 5 6 6 8 7 8 6 10 10 6 3 3 3 3 4 6
8 7 7 7 6 5 5 6 6 7 6 7 6 6 8 9 4 4 3 3 4 4
Wind_Direction
69 74 80 90 98 95 98 91 80 74 77 70 62 61 57 49 59 42 45 43 7 24
74 82 92 85 82 87 98 96 80 79 81 66 49 68 64 46 51 68 11 54 43 48
69 76 88 89 87 86 84 89 90 77 72 77 63 60 74 58 46 59 41 25 44 30
67 66 67 78 76 76 76 74 76 76 80 76 64 56 60 64 47 58 44 35 45 36
86 81 83 81 81 73 80 69 72 75 74 70 66 62 66 69 59 58 50 36 42 43
79 85 91 89 85 74 77 71 69 78 77 70 60 54 54 58 59 57 50 42 46 35
90 92 95 92 85 83 78 83 78 76 86 75 67 53 44 46 48 48 48 44 42 44
119 108 103 97 93 88 89 85 83 87 82 80 73 65 55 48 56 64 61 48 37 52
125 118 115 112 109 105 99 94 93 87 89 78 77 70 59 50 58 59 63 60 40 31
142 136 131 122 115 109 107 105 96 93 86 84 90 76 68 51 47 65 53 54 49 39
137 128 121 113 107 102 101 101 94 89 97 99 86 76 77 77 77 59 51 62 46 25
140 135 133 126 122 118 115 108 106 111 113 103 66 67 65 80 70 70 55 39 38 34
136 135 126 126 125 118 121 128 129 116 103 90 76 71 62 76 70 39 39 26 35 11
119 122 134 132 136 126 123 123 119 112 102 97 81 69 58 46 42 17 19 8 5 337